Track LEMUR-2 CHRIS now! 10-day predictions LEMUR-2 CHRIS is classified as:
1 40933U 15052D 21099.08608701 .00000932 00000-0 37832-4 0 9994 2 40933 6.0072 359.6993 0014575 203.4266 156.5198 14.78279203299193